Location: Callanans Corners
(42.5326°N, 73.8846°W)
Time: 14:18:10
(UTC+00:00)

Okean-O - Pass Details

Date: 06 October 2022
Orbit: 638 x 639 km, 98.1° (Epoch: 29 November)

Event Time Altitude Azimuth Distance (km) Brightness Sun altitude
Exits shadow 23:23:04 13° 72° (ENE) 1,826 4.4 -10.9°
Maximum altitude 23:23:45 14° 62° (ENE) 1,803 4.4 -11.1°
Drops below altitude 10° 23:25:55 10° 32° (NNE) 2,038 4.9 -11.5°
Sets 23:29:09 0° 7° (N) 2,953 6.0 -12.0°
